Air Force Academy, CO

3:39 PM MST on November 11, 2019 (GMT -0700)
Usaf Academy

Weather History for KAFF - May, 2019

Change the Weather History Date:

Thursday, May 30, 2019

  Actual Average Record
Temperature  
Mean Temperature 48 °F -  
Max Temperature 64 °F 69 °F 93 °F (2000)
Min Temperature 33 °F 43 °F 33 °F (2019)
Degree Days  
Heating Degree Days 17    
Moisture  
Dew Point 36 °F    
Average Humidity 58    
Maximum Humidity 99    
Minimum Humidity 31    
Precipitation  
Precipitation 0.00 in - - ()
Sea Level Pressure  
Sea Level Pressure 30.04 in    
Wind  
Wind Speed 6 mph (ENE)    
Max Wind Speed 16 mph    
Max Gust Speed 20 mph    
Visibility 10 miles    
Events      
Averages and records for this station are not official NWS values.
T = Trace of Precipitation, MM = Missing Value Source: NWS Daily Summary

Daily Weather History Graph

Daily Weather History Graph

Search for Another Location

Airport or City:

Astronomy

May. 30, 2019 Rise Set
Actual Time 5:36 AM MDT 8:17 PM MDT
Civil Twilight 5:05 AM MDT 8:48 PM MDT
Nautical Twilight 4:26 AM MDT 9:27 PM MDT
Astronomical Twilight 3:42 AM MDT 10:12 PM MDT
Moon 3:40 AM MDT (5/30) 4:30 PM MDT (5/30)
Length of Visible Light 15h 43m
Length of Day
14h 40m
Waning Crescent, 15% of the Moon is Illuminated
May 30
Waning Crescent
Jun 3
New
Jun 10
First Quarter
Jun 17
Full
Jun 25
Last Quarter

Hourly Weather History & Observations

Time (MDT) Temp. Windchill Dew Point Humidity Pressure Visibility Wind Dir Wind Speed Gust Speed Precip Events Conditions
12:58 AM 42.6 °F 40.9 °F 41.0 °F 94% 30.06 in 10.0 mi North 3.5 mph - N/A   Overcast
1:58 AM 42.3 °F 40.5 °F 40.5 °F 93% 30.06 in 10.0 mi NNE 3.5 mph - N/A   Overcast
2:58 AM 41.4 °F 38.4 °F 39.7 °F 94% 30.08 in 10.0 mi North 4.6 mph - N/A   Overcast
3:58 AM 37.6 °F 32.3 °F 35.2 °F 91% 30.08 in 10.0 mi North 6.9 mph - N/A   Clear
4:58 AM 35.1 °F 27.9 °F 34.9 °F 99% 30.10 in 10.0 mi NNW 9.2 mph - N/A   Clear
5:58 AM 33.1 °F 24.9 °F 32.9 °F 99% 30.10 in 10.0 mi North 10.4 mph - N/A   Clear
6:58 AM 39.4 °F - 37.0 °F 91% 30.09 in 10.0 mi Calm Calm - N/A   Clear
7:58 AM 48.4 °F - 36.3 °F 63% 30.07 in 10.0 mi Calm Calm - N/A   Clear
8:58 AM 54.7 °F - 33.3 °F 44% 30.04 in 10.0 mi South 3.5 mph - N/A   Clear
9:58 AM 57.7 °F - 34.2 °F 41% 30.04 in 10.0 mi SSW 5.8 mph - N/A   Clear
10:58 AM 59.5 °F - 34.0 °F 38% 30.04 in 10.0 mi East 3.5 mph - N/A   Clear
11:58 AM 60.6 °F - 32.0 °F 34% 30.03 in 10.0 mi Calm Calm - N/A   Scattered Clouds
12:58 PM 61.2 °F - 31.8 °F 33% 30.02 in 10.0 mi WSW 3.5 mph - N/A   Mostly Cloudy
1:58 PM 62.2 °F - 32.0 °F 32% 30.01 in 10.0 mi East 8.1 mph - N/A   Mostly Cloudy
2:05 PM 62.6 °F - 32.0 °F 32% 30.01 in 10.0 mi NE 8.1 mph - N/A   Mostly Cloudy
2:58 PM 61.3 °F - 32.7 °F 34% 30.00 in 10.0 mi East 8.1 mph - N/A   Mostly Cloudy
3:58 PM 63.0 °F - 31.8 °F 31% 30.00 in 10.0 mi SE 6.9 mph - N/A   Scattered Clouds
4:58 PM 63.5 °F - 33.1 °F 32% 30.00 in 10.0 mi SSE 11.5 mph - N/A   Overcast
5:51 PM 62.6 °F - 33.8 °F 34% 30.02 in 10.0 mi South 15.0 mph 19.6 mph N/A   Mostly Cloudy
5:58 PM 62.2 °F - 34.2 °F 35% 30.02 in 10.0 mi South 16.1 mph - N/A   Mostly Cloudy
6:58 PM 58.5 °F - 37.8 °F 46% 30.02 in 10.0 mi South 16.1 mph - N/A   Scattered Clouds
7:58 PM 53.8 °F - 38.8 °F 57% 30.03 in 10.0 mi South 9.2 mph - N/A   Mostly Cloudy
8:58 PM 51.6 °F - 39.9 °F 64% 30.02 in 10.0 mi Calm Calm - N/A   Partly Cloudy
9:58 PM 50.2 °F - 39.6 °F 67% 30.06 in 10.0 mi North 8.1 mph - N/A   Overcast
10:58 PM 48.7 °F - 40.1 °F 72% 30.04 in 10.0 mi North 6.9 mph - N/A   Clear
11:58 PM 50.0 °F - 38.3 °F 64% 30.02 in 10.0 mi North 5.8 mph - N/A   Partly Cloudy